Flag for Germany Weather past 2 weeks in Bad Vilbel, Hesse, Germany

Now
59 °F

Passing clouds.


Feels Like: 60 °F
Forecast: 50 / 69 °F
Wind: 3 mph from Northwest

Location: Frankfurt / M-Flughafen

Current Time: Sep 1, 2015 at 11:24:52 PM

Latest Report: Sep 1, 2015 at 10:00 PM


Visibility: 28 mi

Pressure: 30.03 "Hg

Humidity: 89%

Dew point: 56 °F

Location of Bad VilbelLocation

Historic Weather in Bad Vilbel — Graph

°F

Bad Vilbel temperature yesterday

Maximum temperature yesterday: 92 °F (at 4:00 PM)
Minimum temperature yesterday: 67 °F (at 7:00 AM)
Average temperature yesterday: 80 °F

Past Weeks' High & Low Weather Summary

 TemperatureHumidityPressure
High92 °F (Aug 31, 4:00 PM)100% (Aug 29, 6:00 AM)30.29 "Hg (Aug 29, 6:00 AM)
Low50 °F (Aug 19, 6:00 AM)21% (Aug 31, 6:00 PM)29.66 "Hg (Aug 23, 7:00 PM)
Average68 °F68%30.00 "Hg
* Reported Aug 17 10:00 PM — Sep 1 10:00 PM, Bad Vilbel, Weather by CustomWeather, © 2015

Note: Actual official high and low records may vary slightly from our data, if they occured in-between our weather recording intervals... More about our weather records

Advertising

Bad Vilbel weather history for previous 24 hours

 ConditionsComfort  
Time TempWeatherWind HumidityBarometerVisibility
10:00 PM
Tue, Sep 1
59 °FPassing clouds.3 mph89%30.03 "Hg28 mi
9:00 PM62 °FPassing clouds.6 mph77%30.01 "Hg28 mi
8:00 PM64 °FPartly sunny.5 mph76%29.98 "Hg25 mi
7:00 PM64 °FOvercast.7 mph78%29.96 "Hg25 mi
6:00 PM64 °FLight rain. Overcast.7 mph81%29.94 "Hg25 mi
5:00 PM64 °FOvercast.6 mph88%29.92 "Hg16 mi
4:00 PM65 °FLight rain. Overcast.3 mph96%29.89 "Hg16 mi
3:00 PM64 °FLight rain. Overcast.6 mph95%29.85 "Hg6 mi
2:00 PM63 °FRain showers. Overcast.10 mph99%29.81 "Hg3 mi
1:00 PM80 °FOvercast.7 mph53%29.74 "Hg19 mi
12:00 PM76 °FPartly sunny.2 mph62%29.76 "Hg19 mi
10:00 AM72 °FOvercast.2 mph73%29.77 "Hg19 mi
9:00 AM71 °FPartly sunny.3 mph79%29.77 "Hg22 mi
8:00 AM69 °FPartly sunny.3 mph91%29.79 "Hg16 mi
7:00 AM67 °FPartly sunny.2 mph94%29.80 "Hg17 mi
6:00 AM67 °FSprinkles. Overcast.1 mph88%29.81 "Hg22 mi
5:00 AM67 °FPassing clouds.1 mph85%29.81 "Hg31 mi
4:00 AM67 °FPassing clouds.1 mph86%29.82 "Hg31 mi
3:00 AM71 °FPassing clouds.3 mph72%29.82 "Hg31 mi
2:00 AM71 °FPassing clouds.2 mph67%29.83 "Hg31 mi
1:00 AM69 °FPassing clouds.2 mph71%29.81 "Hg31 mi
Weather by CustomWeather, © 2015

See weather overviewHow to use our weather pages